Location: Dzierzno
(50.6159°N, 19.2852°E)
Time: 22:09:06
(UTC+00:00)

BREEZE-M DEB (TANK) - Pass Details

Date: 18 November 2025
Orbit: 304 x 15919 km, 49.4° (Epoch: 04 December)

Event Time Altitude Azimuth Distance (km) Brightness Sun altitude
Rises 17:31:22 0° 260° (W) 2,268 6.8 -24.8°
Reaches altitude 10° 17:32:41 10° 259° (WSW) 1,630 5.7 -25.0°
Maximum altitude 17:35:48 78° 173° (S) 788 2.9 -25.5°
Enters shadow 17:36:13 71° 121° (ESE) 864 3.0 -25.6°
